Location: Makakahi
(40.6833°S, 175.6000°E)
Time: 19:43:02
(UTC+00:00)

FENGYUN 1C DEB - Pass Details

Date: 09 February 2026
Orbit: 839 x 906 km, 98.9° (Epoch: 9 March)

Event Time Altitude Azimuth Distance (km) Brightness Sun altitude
Rises 11:03:35 0° 189° (S) 3,438 ? -31.1°
Reaches altitude 10° 11:08:27 10° 227° (SW) 2,503 ? -31.4°
Maximum altitude 11:09:19 10° 236° (SW) 2,477 ? -31.5°
Drops below altitude 10° 11:10:11 10° 245° (WSW) 2,504 ? -31.6°
Sets 11:15:04 0° 283° (WNW) 3,445 ? -31.9°
